Kalamazoo, MI

11:48 AM EDT on May 26, 2017 (GMT -0400)
Kalamazoo-Battle Creek International

Weather History for KAZO - October, 2014

Change the Weather History Date:

Friday, October 24, 2014

  Actual Average Record
Temperature  
Mean Temperature 54 °F 48 °F  
Max Temperature 64 °F 58 °F 78 °F (1963)
Min Temperature 44 °F 39 °F 22 °F (1981)
Degree Days  
Heating Degree Days 11 17  
Month to date heating degree days 337 319  
Since 1 July heating degree days 518 468  
Cooling Degree Days 0 0  
Month to date cooling degree days 0 7  
Year to date cooling degree days 609 674  
Growing Degree Days 4 (Base 50)    
Moisture  
Dew Point 44 °F    
Average Humidity 75    
Maximum Humidity 93    
Minimum Humidity 56    
Precipitation  
Precipitation 0.00 in 0.11 in 1.42 in (1951)
Month to date precipitation 4.48 2.59  
Year to date precipitation 24.09 30.00  
Sea Level Pressure  
Sea Level Pressure 30.03 in    
Wind  
Wind Speed 4 mph (SSW)    
Max Wind Speed 14 mph    
Max Gust Speed 17 mph    
Visibility 6 miles    
Events Fog    
T = Trace of Precipitation, MM = Missing Value Source: NWS Daily Summary

Daily Weather History Graph

Daily Weather History Graph

Search for Another Location

Airport or City:

Trip Planner

Search our weather history database for the weather conditions in past years. The results will help you decide how hot, cold, wet, or windy it might be!

Date:

Astronomy

Oct. 24, 2014 Rise Set
Actual Time 8:05 AM EDT 6:46 PM EDT
Civil Twilight 7:36 AM EDT 7:15 PM EDT
Nautical Twilight 7:04 AM EDT 7:47 PM EDT
Astronomical Twilight 6:31 AM EDT 8:20 PM EDT
Moon 8:44 AM EDT (10/24) 7:25 PM EDT (10/24)
Length of Visible Light 11h 38m
Length of Day
10h 41m
New Moon, 1% of the Moon is Illuminated
Oct 24
New Moon
Oct 30
First Quarter
Nov 6
Full
Nov 14
Last Quarter
Nov 22
New

Hourly Weather History & Observations

Time (EDT) Temp. Windchill Dew Point Humidity Pressure Visibility Wind Dir Wind Speed Gust Speed Precip Events Conditions
12:53 AM 46.9 °F - 41.0 °F 80% 30.10 in 7.0 mi SSE 3.5 mph - N/A   Overcast
1:53 AM 46.9 °F - 41.0 °F 80% 30.09 in 7.0 mi SSW 4.6 mph - N/A   Overcast
3:53 AM 48.0 °F - 41.0 °F 77% 30.07 in 7.0 mi SSE 3.5 mph - N/A   Mostly Cloudy
4:53 AM 46.0 °F 43.9 °F 41.0 °F 83% 30.08 in 5.0 mi South 4.6 mph - N/A   Haze
5:53 AM 46.9 °F - 41.0 °F 80% 30.08 in 5.0 mi South 4.6 mph - N/A   Haze
6:53 AM 48.0 °F - 43.0 °F 83% 30.08 in 5.0 mi South 3.5 mph - N/A   Haze
7:36 AM 48.0 °F - 42.1 °F 80% 30.06 in 6.0 mi South 5.8 mph - N/A   Haze
7:53 AM 48.0 °F - 42.1 °F 80% 30.07 in 6.0 mi South 4.6 mph - N/A   Haze
8:53 AM 50.0 °F - 44.1 °F 80% 30.09 in 4.0 mi SW 4.6 mph - N/A   Haze
9:53 AM 51.1 °F - 43.0 °F 74% 30.08 in 6.0 mi SSW 4.6 mph - N/A   Haze
10:53 AM 53.1 °F - 44.1 °F 71% 30.09 in 7.0 mi South 4.6 mph - N/A   Overcast
11:53 AM 55.0 °F - 46.0 °F 72% 30.09 in 7.0 mi SSW 3.5 mph - N/A   Overcast
12:53 PM 57.0 °F - 46.9 °F 69% 30.07 in 8.0 mi South 6.9 mph - N/A   Overcast
1:53 PM 60.1 °F - 48.0 °F 64% 30.03 in 10.0 mi SSW 5.8 mph - N/A   Scattered Clouds
2:53 PM 62.1 °F - 46.9 °F 58% 30.01 in 10.0 mi WSW 11.5 mph - N/A   Mostly Cloudy
3:53 PM 62.1 °F - 48.0 °F 60% 30.00 in 10.0 mi WSW 5.8 mph - N/A   Partly Cloudy
4:53 PM 63.0 °F - 48.0 °F 58% 29.99 in 10.0 mi Variable 6.9 mph - N/A   Mostly Cloudy
5:53 PM 61.0 °F - 48.0 °F 62% 29.99 in 10.0 mi West 5.8 mph - N/A   Partly Cloudy
6:53 PM 55.9 °F - 46.9 °F 72% 29.99 in 10.0 mi Calm Calm - N/A   Clear
7:53 PM 53.1 °F - 46.9 °F 80% 30.00 in 10.0 mi Calm Calm - N/A   Clear
8:03 PM 51.1 °F - 46.0 °F 83% 29.99 in 10.0 mi Calm Calm - N/A   Clear
8:53 PM 48.9 °F - 46.0 °F 90% 30.00 in 7.0 mi Calm Calm - N/A   Clear
9:53 PM 46.9 °F - 44.1 °F 90% 30.00 in 5.0 mi Calm Calm - N/A   Clear
10:53 PM 45.0 °F - 43.0 °F 93% 29.99 in 5.0 mi Calm Calm - N/A Fog Fog
11:00 PM 45.0 °F - 43.0 °F 93% 29.97 in 0.5 mi Calm Calm - N/A Fog Fog
11:13 PM 45.0 °F - 43.0 °F 93% 29.96 in 0.2 mi Calm Calm - N/A Fog Fog
11:20 PM 46.0 °F 44.8 °F 44.1 °F 93% 29.96 in 0.8 mi South 3.5 mph - N/A   Scattered Clouds
11:27 PM 45.0 °F 43.5 °F 44.1 °F 97% 29.96 in 1.2 mi South 3.5 mph - N/A   Scattered Clouds
11:53 PM 45.0 °F 43.5 °F 43.0 °F 93% 29.97 in 1.0 mi SSE 3.5 mph - N/A   Partly Cloudy